Home > Weather > Murmansk > Past weeks

Flag for Russia Past Weather in Murmansk, Russia — Yesterday and Last 2 Weeks

Now
48 °F

Partly sunny.


Feels Like: 44 °F
Forecast: 41 / 59 °F
Wind: 10 mph from North

Location: Murmansk Airport

Current Time: Aug 24, 2016 at 9:52:34 AM

Latest Report: Aug 24, 2016 at 9:00 AM


Visibility: N/A

Pressure: 30.15 "Hg

Humidity: 71%

Dew Point: 39 °F

Location of MurmanskLocation

Past Weather in Murmansk — Graph

°F

Murmansk Temperature Yesterday

Maximum temperature yesterday: 64 °F (at 12:30 PM)
Minimum temperature yesterday: 48 °F (at 11:00 PM)
Average temperature yesterday: 58 °F

High & Low Weather Summary for the Past Weeks

 TemperatureHumidityPressure
High73 °F (Aug 19, 3:00 PM)94% (Aug 11, 11:30 PM)30.36 "Hg (Aug 11, 11:30 PM)
Low43 °F (Aug 10, 11:30 PM)47% (Aug 19, 2:00 PM)29.30 "Hg (Aug 9, 12:00 PM)
Average55 °F79%29.93 "Hg
* Reported Aug 9 8:00 AM — Aug 24 8:30 AM, Murmansk, Weather by CustomWeather, © 2016

Note: Actual official high and low records may vary slightly from our data, if they occured in-between our weather recording intervals... More about our weather records

Advertising

Murmansk Weather History for the Previous 24 Hours

Scroll right to see more
 ConditionsComfort  
Time TempWeatherWind HumidityBarometerVisibility
8:30 AM
Wed, Aug 24
48 °FPartly sunny.10 mph71%30.15 "HgN/A
8:00 AM48 °FPartly sunny.10 mph71%30.12 "HgN/A
7:30 AM48 °FPartly sunny.8 mph71%30.12 "HgN/A
7:00 AM48 °FPartly sunny.8 mph76%30.12 "HgN/A
6:30 AM48 °FPartly sunny.8 mph76%30.12 "HgN/A
6:00 AM48 °FPartly sunny.8 mph76%30.09 "HgN/A
5:30 AM48 °FPartly sunny.8 mph76%30.09 "HgN/A
5:00 AM48 °FPartly sunny.8 mph76%30.09 "HgN/A
4:30 AM48 °FPassing clouds.8 mph76%30.09 "HgN/A
4:00 AM48 °FPassing clouds.10 mph76%30.09 "HgN/A
3:30 AM48 °FPassing clouds.10 mph76%30.07 "HgN/A
3:00 AM48 °FPassing clouds.8 mph82%30.07 "HgN/A
2:30 AM48 °FPassing clouds.10 mph82%30.07 "HgN/A
2:00 AM48 °FSprinkles. Passing clouds.8 mph82%30.04 "HgN/A
1:30 AM48 °FPassing clouds.10 mph82%30.04 "HgN/A
1:00 AM48 °FPassing clouds.10 mph82%30.01 "HgN/A
12:30 AM48 °FPassing clouds.13 mph82%30.01 "HgN/A
12:00 AM48 °FPassing clouds.10 mph82%30.01 "HgN/A
11:30 PM
Tue, Aug 23
48 °FPartly cloudy.8 mph82%29.98 "HgN/A
11:00 PM48 °FSprinkles. Passing clouds.13 mph87%29.98 "Hg6 mi
10:30 PM50 °FSprinkles. Passing clouds.13 mph94%29.95 "Hg4 mi
10:00 PM52 °FSprinkles. Passing clouds.10 mph88%29.92 "Hg4 mi
9:30 PM52 °FSprinkles. Passing clouds.13 mph94%29.92 "Hg4 mi
9:00 PM54 °FSprinkles. Partly sunny.10 mph88%29.89 "Hg3 mi
8:30 PM54 °FSprinkles. Partly sunny.10 mph88%29.86 "Hg6 mi
8:00 PM54 °FSprinkles. Partly sunny.8 mph88%29.86 "Hg2 mi
7:30 PM55 °FSprinkles. Broken clouds.10 mph88%29.83 "Hg3 mi
7:00 PM59 °FSprinkles. Partly sunny.1 mph82%29.83 "Hg4 mi
6:30 PM59 °FPartly sunny.3 mph77%29.80 "HgN/A
6:00 PM59 °FPartly sunny.3 mph77%29.80 "HgN/A
5:30 PM59 °FPartly sunny.3 mph72%29.80 "HgN/A
5:00 PM59 °FPartly sunny.6 mph77%29.80 "HgN/A
4:30 PM61 °FPartly sunny.3 mph72%29.80 "HgN/A
4:00 PM61 °FBroken clouds.3 mph77%29.80 "HgN/A
3:30 PM59 °FSprinkles. Partly sunny.1 mph82%29.80 "HgN/A
3:00 PM59 °FSprinkles. Partly sunny.6 mph82%29.80 "Hg5 mi
2:30 PM64 °FPartly sunny.3 mph60%29.77 "HgN/A
2:00 PM64 °FPartly sunny.6 mph64%29.77 "HgN/A
1:30 PM64 °FPartly sunny.3 mph64%29.77 "HgN/A
1:00 PM64 °FPartly sunny.6 mph73%29.77 "HgN/A
12:30 PM64 °FPartly sunny.3 mph68%29.80 "HgN/A
12:00 PM63 °FPartly sunny.3 mph77%29.80 "HgN/A
11:30 AM61 °FBroken clouds.6 mph83%29.80 "HgN/A
11:00 AM63 °FPartly sunny.6 mph88%29.77 "HgN/A
10:30 AM61 °FPartly sunny.6 mph94%29.80 "HgN/A
10:00 AM61 °FBroken clouds.6 mph88%29.80 "HgN/A
9:30 AM59 °FSprinkles. Broken clouds.6 mph94%29.80 "HgN/A
9:00 AM59 °FSprinkles. Partly sunny.6 mph94%29.80 "Hg5 mi
Weather by CustomWeather, © 2016

See weather overviewHow to use our weather pages